Date,TemperatureHighF,TemperatureAvgF,TemperatureLowF,DewpointHighF,DewpointAvgF,DewpointLowF,HumidityHigh,HumidityAvg,HumidityLow,PressureMaxIn,PressureMinIn,WindSpeedMaxMPH,WindSpeedAvgMPH,GustSpeedMaxMPH,PrecipitationSumIn
2013-1-1,51,35,29,30,24,22,81,64,44,30.22,30.13,8,2,8,0.00
2013-1-2,52,37,33,29,24,22,65,59,32,30.12,29.98,12,4,12,0.00
2013-1-3,46,38,32,31,26,21,75,62,43,29.98,29.88,8,3,8,0.00
2013-1-4,37,35,34,32,30,28,85,83,79,30.22,29.93,2,1,2,0.01
2013-1-5,36,36,35,33,32,30,89,85,82,30.23,30.14,2,1,2,0.01
2013-1-6,45,40,35,44,38,33,99,95,89,30.29,30.11,13,1,13,0.08
2013-1-7,54,48,45,51,46,44,98,95,85,30.26,30.02,21,7,21,0.15
2013-1-8,54,51,46,51,48,45,99,90,73,30.25,29.93,27,7,27,0.07
2013-1-9,52,47,33,46,42,32,95,84,75,30.03,29.75,20,8,20,0.18
2013-1-10,42,36,31,39,35,30,99,94,85,30.14,30.02,7,1,7,0.08
2013-1-11,48,33,26,40,29,23,99,88,58,30.35,30.14,6,0,6,0.00
2013-1-12,33,28,24,31,26,22,96,92,89,30.45,30.34,4,0,4,0.00
2013-1-13,33,29,27,29,26,24,95,88,80,31.25,30.43,6,1,6,0.00
2013-1-14,33,30,28,32,27,23,94,88,83,30.61,30.53,6,2,6,0.01
2013-1-15,41,36,33,38,33,31,97,90,85,30.70,30.48,3,1,3,0.01
2013-1-16,37,35,34,34,32,32,92,90,87,30.68,30.52,4,1,4,0.00
2013-1-17,52,36,28,38,30,23,96,80,52,30.52,30.34,10,2,10,0.00
2013-1-18,49,32,26,37,28,23,94,85,61,30.37,30.30,6,2,6,0.00
2013-1-19,44,31,25,36,28,23,94,88,71,30.38,30.31,6,2,6,0.00
2013-1-20,48,30,21,32,24,17,94,80,43,30.40,30.27,5,2,5,0.00
2013-1-21,43,30,20,33,24,16,92,78,53,30.32,30.19,6,2,6,0.00
2013-1-22,53,32,21,34,24,18,89,73,37,30.19,29.97,8,1,8,0.00
2013-1-23,38,35,33,32,27,22,92,74,56,30.24,29.93,8,1,8,0.25
2013-1-24,41,37,33,39,36,31,98,95,92,30.26,30.13,5,2,5,0.14
2013-1-25,57,44,40,51,43,39,99,95,76,30.16,29.99,11,2,11,0.06
2013-1-26,52,42,38,44,40,36,99,92,70,30.12,29.97,13,3,13,0.04
2013-1-27,44,40,37,41,38,34,97,93,85,30.18,30.07,11,3,11,0.09
2013-1-28,45,42,39,42,40,38,97,94,89,30.24,30.11,13,4,13,0.25
2013-1-29,48,45,43,46,43,42,97,93,88,30.50,30.23,13,3,13,0.07
2013-1-30,50,47,43,47,44,42,95,91,87,30.50,30.44,17,7,17,0.00
2013-1-31,58,47,43,50,45,42,98,91,71,30.48,30.34,8,2,8,0.00
2013-2-1,63,49,41,48,43,37,96,81,52,30.38,30.27,6,1,6,0.00
2013-2-2,58,42,33,43,36,31,96,81,55,30.32,30.26,7,2,7,0.00
2013-2-3,48,42,35,45,40,32,98,94,87,30.36,30.24,4,1,4,0.00
2013-2-4,59,46,41,48,42,40,97,86,59,30.26,29.95,6,1,6,0.00
2013-2-5,55,46,43,47,42,40,92,85,66,30.06,29.93,16,4,16,0.08
2013-2-6,51,46,42,43,41,38,92,81,68,30.11,29.86,23,4,23,0.08
2013-2-7,56,43,34,42,37,32,93,80,56,30.16,29.93,17,4,17,0.02
2013-2-8,54,39,30,43,34,28,97,84,60,30.30,30.16,8,1,8,0.01
2013-2-9,45,40,33,42,37,30,96,92,86,30.31,30.26,7,1,7,0.01
2013-2-10,50,42,35,43,38,33,97,85,70,30.36,30.25,6,1,6,0.01
2013-2-11,47,44,41,41,38,36,87,80,70,30.41,30.33,11,2,11,0.00
2013-2-12,59,48,44,47,42,38,91,81,60,30.48,30.40,11,4,11,0.00
2013-2-13,59,50,45,47,43,40,87,79,62,30.52,30.42,11,3,11,0.00
2013-2-14,61,49,39,46,41,37,93,75,53,30.58,30.51,7,1,7,0.00
2013-2-15,65,50,37,45,41,34,96,74,42,30.51,30.21,8,1,8,0.00
2013-2-16,61,45,36,48,41,33,99,86,46,30.30,30.22,13,3,13,0.00
2013-2-17,52,41,34,44,35,31,99,81,56,30.32,30.11,7,1,7,0.00
2013-2-18,48,40,33,40,36,32,99,83,65,30.11,29.75,14,2,14,0.00
2013-2-19,57,45,36,42,35,30,97,73,38,30.01,29.70,8,2,8,0.04
2013-2-20,49,40,33,43,37,32,99,89,68,30.11,30.01,13,2,13,0.06
2013-2-21,45,42,37,42,40,36,99,92,85,30.22,30.10,17,5,17,0.02
2013-2-22,49,43,36,47,41,34,97,92,86,30.19,29.89,25,8,25,0.78
2013-2-23,52,41,35,45,37,32,98,86,63,30.46,30.08,10,3,10,0.02
2013-2-24,56,44,35,40,36,33,96,75,44,30.45,30.06,14,3,14,0.02
2013-2-25,56,43,34,43,37,30,95,80,47,30.34,30.02,20,5,20,0.14
2013-2-26,56,42,31,42,35,30,97,78,49,30.34,30.20,11,2,11,0.00
2013-2-27,54,48,41,45,40,37,95,76,62,30.30,30.21,14,3,14,0.04
2013-2-28,56,52,47,53,50,45,97,91,86,30.43,30.17,17,6,17,0.06
2013-3-1,64,55,51,52,50,47,90,82,61,30.44,30.30,13,3,13,0.00
2013-3-2,57,50,41,49,46,36,96,86,72,30.30,30.15,11,2,11,0.00
2013-3-3,60,42,30,41,34,28,96,75,43,30.29,30.20,9,2,9,0.00
2013-3-4,62,42,30,40,28,20,93,64,22,30.20,29.87,8,2,8,0.00
2013-3-5,44,36,28,40,34,24,99,93,82,29.87,29.60,10,2,10,0.31
2013-3-6,45,42,36,44,41,34,99,97,92,29.96,29.54,16,4,16,0.32
2013-3-7,62,46,32,45,36,29,99,73,35,30.05,29.96,10,2,10,0.00
2013-3-8,72,49,30,45,36,29,99,69,24,30.07,29.98,10,2,10,0.00
2013-3-12,60,55,46,51,46,42,88,71,58,30.24,30.17,14,4,14,0.00
2013-3-13,69,56,45,51,46,43,95,73,44,30.23,30.10,10,2,10,0.00
2013-3-14,61,53,47,51,48,42,99,83,53,30.22,30.07,14,3,14,0.00
2013-3-15,54,54,53,49,49,48,85,83,82,30.23,30.22,4,2,4,0.00
2013-3-16,51,47,39,48,44,37,98,91,79,30.19,30.03,14,5,14,0.11
2013-3-17,55,44,36,41,36,33,95,75,47,30.29,30.13,10,4,10,0.00
2013-3-18,60,46,34,42,37,32,99,74,44,30.28,30.15,8,2,8,0.00
2013-3-19,52,44,37,46,41,35,97,88,60,30.14,29.66,4,2,4,0.53
2013-3-20,55,49,40,52,44,34,99,84,64,30.18,29.54,21,10,21,0.51
2013-3-21,57,45,36,42,36,32,95,73,47,30.33,30.17,16,5,16,0.01
2013-3-22,56,38,31,43,34,30,99,87,45,30.42,30.31,8,1,8,0.06
2013-3-23,58,42,32,42,34,29,99,76,37,30.41,30.29,6,1,6,0.00
2013-3-24,62,45,35,41,33,29,95,66,32,30.29,30.11,8,2,8,0.00
2013-3-25,66,51,38,42,37,32,90,63,31,30.12,29.94,9,2,9,0.00
2013-3-26,55,47,38,48,44,37,98,90,75,30.06,29.99,4,1,4,0.01
2013-3-27,79,55,41,53,47,41,99,78,32,30.02,29.93,8,2,8,0.01
2013-3-28,79,57,44,53,48,44,99,76,32,30.16,30.00,8,2,8,0.00
2013-3-29,80,60,50,56,51,47,99,75,36,30.23,30.16,8,2,8,0.02
2013-3-30,89,58,41,54,48,41,99,75,30,30.19,30.00,5,1,5,0.00
2013-3-31,80,60,45,54,47,43,97,66,34,30.03,29.94,10,3,10,0.00
2013-4-1,67,56,47,54,48,44,99,76,51,30.19,30.01,14,4,14,0.00
2013-4-2,70,56,44,52,48,41,96,76,45,30.23,27.18,14,3,14,0.00
2013-4-3,68,55,42,56,50,41,99,84,57,30.17,29.92,9,2,9,0.00
2013-4-4,64,56,53,59,54,49,98,91,74,29.92,29.70,18,4,18,0.22
2013-4-5,61,54,51,53,51,49,99,89,69,29.99,29.85,21,7,21,0.35
2013-4-6,60,51,46,51,48,43,99,90,64,30.04,29.74,21,6,21,0.63
2013-4-7,54,48,41,50,44,39,99,86,63,29.98,29.59,34,8,34,1.03
2013-4-8,59,48,39,48,43,38,99,83,58,30.31,29.97,11,2,11,0.01
2013-4-9,59,50,39,48,44,38,99,81,61,30.39,30.26,7,2,7,0.00
2013-4-10,70,55,46,58,47,39,97,77,50,30.38,30.13,19,4,19,0.05
2013-4-11,45,43,42,42,40,39,92,87,82,30.39,30.38,3,1,3,0.00
2013-4-12,51,47,35,44,41,34,97,80,63,30.09,29.67,14,5,14,0.01
2013-4-13,55,46,38,42,38,34,99,77,28,30.15,29.97,21,6,21,0.05
2013-4-14,60,46,37,46,40,36,98,83,49,30.14,30.00,14,3,14,0.05
2013-4-16,65,50,36,40,32,21,85,53,26,30.42,30.28,8,2,8,0.00
2013-4-17,61,48,34,45,39,33,99,72,40,30.52,30.41,11,2,11,0.00
2013-4-18,63,54,46,49,45,41,94,72,52,30.50,30.34,11,2,11,0.05
2013-4-19,63,54,49,54,50,46,99,88,62,30.33,30.17,15,6,15,0.35
2013-4-20,62,54,47,50,46,43,99,76,53,30.36,30.28,11,3,11,0.00
2013-4-21,56,51,45,51,46,41,89,82,69,30.34,30.26,9,3,9,0.00
2013-4-22,67,53,36,42,30,12,99,50,12,30.39,30.23,11,2,11,0.00
2013-4-23,72,55,34,42,31,18,90,49,13,30.28,30.04,8,2,8,0.00
2013-4-24,77,59,37,43,32,17,91,45,11,30.16,29.91,8,2,8,0.00
2013-4-25,81,60,41,46,39,25,92,53,19,30.05,29.91,11,2,11,0.00
2013-4-26,81,62,42,53,43,32,99,58,19,30.14,30.05,11,2,11,0.00
2013-4-27,77,59,44,50,44,34,96,62,24,30.16,30.08,11,2,11,0.00
2013-4-28,70,58,50,52,44,34,91,63,30,30.16,29.98,14,4,14,0.00
2013-4-29,61,52,36,51,38,26,92,64,31,30.14,29.96,17,4,17,0.00
2013-4-30,64,48,31,45,35,27,95,65,30,30.34,30.13,11,2,11,0.00
2013-5-1,71,53,33,43,33,25,99,54,21,30.41,30.33,7,2,7,0.00
2013-5-2,82,62,43,43,35,18,76,43,11,30.36,30.14,6,2,6,0.00
2013-5-3,83,60,37,44,36,28,85,47,18,30.20,30.03,6,2,6,0.00
2013-5-4,83,64,40,47,33,19,88,41,12,30.03,29.80,15,2,15,0.00
2013-5-5,85,68,47,48,35,26,65,33,12,29.80,29.59,11,2,11,0.00
2013-5-6,81,66,52,53,49,46,84,58,33,29.77,29.64,9,2,9,0.00
2013-5-7,75,58,43,52,46,41,95,67,41,29.93,29.77,11,3,11,0.00
2013-5-8,73,58,46,56,50,42,99,77,51,30.04,29.93,8,2,8,0.00
2013-5-9,81,63,48,57,50,47,99,69,33,30.09,29.96,8,1,8,0.00
2013-5-10,84,67,51,59,52,44,99,63,28,30.09,29.99,9,2,9,0.00
2013-5-11,84,69,56,60,54,46,85,60,32,30.08,29.88,8,2,8,0.00
2013-5-12,73,64,58,61,58,53,98,81,60,30.09,29.95,11,2,11,0.00
2013-5-13,71,60,50,59,54,46,99,82,52,30.19,30.00,23,4,23,0.00
2013-5-14,70,55,42,51,42,30,99,66,27,30.20,30.06,8,2,8,0.00
2013-5-15,60,51,44,53,48,40,94,88,75,30.13,30.04,8,1,8,0.00
2013-5-16,66,58,51,58,54,50,99,90,71,30.04,29.95,11,2,11,0.00
2013-5-17,70,56,46,55,50,45,99,83,46,30.12,30.01,12,2,12,0.00
2013-5-18,58,53,48,56,52,48,99,95,77,30.30,30.12,8,1,8,0.00
2013-5-19,70,59,50,54,51,46,98,76,50,30.42,30.30,8,2,8,0.00
2013-5-20,72,57,42,54,46,40,99,70,37,30.37,29.92,8,2,8,0.00
2013-5-21,55,46,42,49,44,41,99,93,62,30.00,29.84,13,3,13,0.00
2013-5-22,49,44,43,48,43,42,99,98,96,30.00,29.94,14,6,14,0.00
2013-5-23,54,49,45,50,48,44,99,95,82,30.04,29.98,14,5,14,0.00
2013-5-24,59,52,47,54,50,47,99,91,74,30.10,29.99,17,4,17,0.00
2013-5-25,71,59,49,53,51,49,99,77,49,30.09,29.95,12,2,12,0.00
2013-5-26,69,58,53,56,52,49,98,80,54,30.05,29.97,14,5,14,0.00
2013-5-27,66,57,51,63,53,49,99,89,75,30.01,29.75,17,4,17,0.00
2013-5-28,67,57,52,55,50,46,98,79,52,29.95,29.79,15,4,15,0.00
2013-5-29,66,57,50,56,52,47,99,84,60,30.08,29.65,19,6,19,0.00
2013-5-30,65,56,50,53,50,46,97,80,55,30.27,30.08,13,3,13,0.00
2013-5-31,70,58,46,54,46,41,99,68,37,30.35,30.25,6,1,6,0.00
2013-6-1,82,63,43,58,52,41,99,71,41,30.26,30.03,12,2,12,0.00
2013-6-2,77,62,48,57,51,43,88,69,40,30.11,30.05,7,2,7,0.00
2013-6-3,75,57,41,50,46,41,99,69,38,30.14,30.04,6,2,6,0.00
2013-6-4,85,64,41,53,47,39,94,59,28,30.10,29.98,14,2,14,0.00
2013-6-5,85,71,54,61,54,45,93,59,25,30.09,29.99,62,2,62,0.00
2013-6-6,85,68,54,59,52,37,94,60,32,30.08,29.99,9,2,9,0.00
2013-6-7,84,65,51,54,46,33,85,55,22,30.18,30.08,8,2,8,0.00
2013-6-8,79,61,41,49,44,40,99,60,29,30.21,30.07,10,2,10,0.00
2013-6-9,72,57,49,53,48,43,95,75,49,30.14,30.10,6,1,6,0.00
2013-6-10,79,61,44,52,47,42,97,62,35,30.14,30.00,8,2,8,0.00
2013-6-11,69,59,52,54,48,45,82,67,46,30.25,30.10,11,2,11,0.00
2013-6-12,65,56,52,53,49,48,87,80,63,30.26,30.23,7,2,7,0.00
2013-6-24,72,61,56,61,57,54,99,86,56,29.72,29.52,14,4,14,0.00
2013-6-25,70,62,56,63,58,55,99,87,64,29.86,29.67,15,3,15,0.00
2013-6-26,74,65,59,63,59,57,99,83,59,30.04,29.85,11,3,11,0.00
2013-6-27,83,70,61,65,62,57,98,76,52,30.16,30.00,11,2,11,0.00
2013-6-28,89,74,59,67,61,56,99,69,37,30.14,30.00,9,2,9,0.00
2013-6-29,87,76,63,64,61,56,93,63,39,30.10,29.95,9,2,9,0.00
2013-6-30,91,77,61,68,62,57,98,64,34,29.98,29.81,9,2,9,0.00
2013-7-1,90,79,67,65,63,58,85,60,42,30.00,29.89,9,2,9,0.00
2013-7-2,95,75,63,68,58,27,87,60,28,30.07,30.00,6,2,6,0.00
2013-7-3,87,70,48,56,49,33,89,52,15,30.14,30.00,9,2,9,0.00
2013-7-4,80,62,48,53,49,45,92,66,38,30.15,30.04,9,2,9,0.00
2013-7-5,57,54,52,54,51,49,93,87,79,30.07,30.04,3,1,3,0.00
2013-7-7,84,68,53,62,57,51,96,70,46,29.99,29.88,17,2,17,0.00
2013-7-8,82,67,51,57,53,50,98,66,36,30.11,29.99,8,2,8,0.00
2013-7-9,90,73,56,64,57,48,99,62,34,30.09,29.97,8,2,8,0.00
2013-7-10,83,69,52,58,52,42,88,57,38,30.07,29.93,6,2,6,0.00
2013-7-11,78,65,50,53,48,42,91,59,32,30.10,29.95,7,2,7,0.00
2013-7-12,75,61,47,53,47,42,96,64,36,30.12,30.00,9,2,9,0.00
2013-7-13,87,68,47,54,48,42,97,57,23,30.17,30.03,7,2,7,0.00
2013-7-14,88,70,52,57,48,35,94,53,24,30.10,29.95,12,2,12,0.00
2013-7-15,76,68,52,54,48,42,85,51,38,30.02,29.81,4,2,4,0.00
2013-7-16,94,72,57,62,54,49,83,56,28,29.99,29.76,11,2,11,0.00
2013-7-17,80,69,60,59,56,53,87,66,10,30.18,29.99,8,4,8,0.09
2013-7-18,83,69,53,60,55,45,99,64,28,30.21,30.06,5,2,5,0.00
2013-7-19,84,64,54,62,57,53,97,80,49,30.15,30.01,4,1,4,0.00
2013-7-20,85,68,54,64,57,52,95,72,47,30.09,29.93,10,2,10,0.00
2013-7-21,88,69,51,63,58,50,98,70,42,30.00,29.88,9,2,9,0.00
2013-7-22,90,72,56,62,58,54,96,66,34,30.06,29.94,7,2,7,0.00
2013-7-23,90,73,55,63,58,52,99,64,36,30.05,29.92,5,1,5,0.00
2013-7-24,91,73,56,62,56,50,95,58,31,30.04,29.95,8,2,8,0.00
2013-7-25,91,72,55,58,53,45,93,57,25,30.08,30.00,7,1,7,0.00
2013-7-26,92,71,53,59,49,33,87,50,23,30.16,30.05,9,2,9,0.00
2013-7-27,83,67,51,55,47,36,90,53,24,30.20,30.00,9,2,9,0.00
2013-7-28,73,56,49,57,50,47,97,81,53,30.08,30.04,5,1,5,0.00
2013-7-29,82,68,55,59,54,50,86,64,36,30.01,29.93,10,2,10,0.00
2013-7-30,88,70,53,62,58,53,98,69,36,30.14,30.02,6,2,6,0.00
2013-7-31,84,69,56,62,59,55,98,72,47,30.12,29.99,5,2,5,0.00
2013-8-1,68,63,59,58,56,54,88,80,69,30.11,30.06,9,3,9,0.00
2013-8-2,76,66,56,58,56,54,95,72,50,30.15,30.09,5,2,5,0.00
2013-8-3,88,70,55,63,59,54,99,71,43,30.11,29.97,6,2,6,0.00
2013-8-4,68,60,56,59,57,56,99,91,75,30.02,30.00,2,0,2,0.00
2013-8-5,97,63,0,64,59,43,86,48,33,30.01,29.89,5,1,5,0.00
2013-8-6,99,79,54,58,49,35,86,42,11,30.00,29.88,5,2,5,0.00
2013-8-7,89,72,57,62,57,52,86,61,34,30.03,29.93,8,2,8,0.00
2013-8-8,89,66,59,64,57,55,87,76,43,30.06,29.90,7,2,7,0.00
2013-8-9,88,73,58,65,58,54,86,63,41,29.95,29.85,9,2,9,0.00
2013-8-10,90,73,62,65,62,60,96,71,41,30.03,29.92,10,3,10,0.00
2013-8-11,79,64,59,62,58,56,94,84,54,30.08,29.98,6,2,6,0.00
2013-8-12,84,68,57,61,58,55,99,73,45,30.08,30.00,8,2,8,0.00
2013-8-13,92,72,53,61,56,49,99,63,31,30.11,29.91,8,2,8,0.00
2013-8-14,89,67,54,62,56,50,99,74,27,29.97,29.91,8,1,8,0.00
2013-8-15,72,68,67,63,62,61,85,81,73,29.96,29.94,4,1,4,0.00
2013-8-16,89,74,63,69,65,62,99,76,47,30.03,29.95,11,2,11,0.00
2013-8-17,91,73,57,62,60,56,97,67,37,30.09,30.00,5,2,5,0.00
2013-8-18,91,73,56,62,59,56,97,67,34,30.14,30.03,8,2,8,0.00
2013-8-19,92,74,56,62,58,54,99,64,32,30.11,30.03,7,2,7,0.00
2013-8-20,89,70,50,60,53,49,99,61,25,30.14,29.99,8,2,8,0.00
2013-8-21,96,74,53,62,55,51,93,58,28,30.01,29.83,4,1,4,0.00
2013-8-22,88,72,56,62,57,53,94,63,38,29.90,29.83,9,2,9,0.00
2013-8-23,80,67,58,63,59,56,99,79,51,29.95,29.87,8,2,8,0.00
2013-8-24,85,68,60,66,59,55,98,75,43,29.93,29.85,8,1,8,0.00
2013-8-25,78,64,54,65,59,53,98,83,56,29.95,29.89,7,1,7,0.00
2013-8-26,82,66,59,63,58,50,99,81,33,29.99,29.90,14,3,14,0.00
2013-8-27,88,72,61,66,62,60,99,75,45,29.99,29.79,8,2,8,0.00
2013-8-28,88,73,60,67,63,60,99,74,10,29.91,29.84,8,2,8,0.00
2013-8-29,81,69,64,68,66,63,99,90,10,30.07,29.84,15,3,15,0.00
2013-8-30,86,70,57,67,59,53,99,72,37,30.15,30.04,10,2,10,0.00
2013-8-31,88,68,49,59,54,48,99,66,34,30.05,29.80,8,2,8,0.00
2013-9-1,82,67,52,55,52,46,90,62,29,29.91,29.79,12,2,12,0.00
2013-9-2,80,67,56,58,53,49,88,62,40,29.93,29.87,12,2,12,0.00
2013-9-3,86,70,60,69,61,52,99,77,42,30.00,29.92,8,1,8,0.00
2013-9-4,80,69,60,64,61,59,97,77,53,30.06,29.98,6,1,6,0.00
2013-9-5,68,63,59,65,62,58,99,95,84,30.04,29.96,16,2,16,0.00
2013-9-6,70,64,59,64,60,58,99,90,70,30.14,30.02,17,4,17,0.00
2013-9-7,89,70,55,67,60,55,99,76,42,30.12,29.95,5,1,5,0.00
2013-9-8,93,74,57,66,61,57,99,70,34,30.08,29.98,8,1,8,0.00
2013-9-9,92,73,57,68,63,57,99,75,43,30.04,29.91,7,1,7,0.00
2013-9-10,100,76,0,67,63,58,99,68,32,29.93,29.76,4,1,4,39.43
2013-9-11,108,70,61,67,62,60,94,80,22,29.93,29.81,5,1,5,0.00
2013-9-12,92,75,58,67,64,57,99,70,44,30.01,29.89,8,2,8,0.00
2013-9-13,83,67,60,68,63,60,99,87,57,29.97,29.83,8,1,8,0.00
2013-9-14,91,70,59,67,63,59,99,82,44,29.86,29.69,7,1,7,0.00
2013-9-15,68,64,60,64,61,58,99,92,82,29.89,29.71,8,2,8,0.00
2013-9-16,61,61,61,58,58,57,89,89,88,29.95,29.89,2,1,2,0.00